Weather History for Missoula, MT

Change the Weather History Date:

Wednesday, November 24, 2010

  Actual Average Record
Temperature  
Mean Temperature 0 °F 30 °F  
Max Temperature 10 °F 37 °F 58 °F (1960)
Min Temperature -11 °F 22 °F -11 °F (2010)
Degree Days  
Heating Degree Days 65 35  
Month to date heating degree days 790 733  
Since 1 July heating degree days 1627 1675  
Cooling Degree Days 0 0  
Month to date cooling degree days 0 0  
Year to date cooling degree days 244 332  
Moisture  
Dew Point -6 °F    
Average Humidity 73    
Maximum Humidity 91    
Minimum Humidity 55    
Precipitation  
Precipitation T in 0.04 in 0.38 in (1947)
Month to date precipitation 1.17 0.80  
Year to date precipitation 14.55 12.88  
Snow  
Snow T in - - ()
Month to date snowfall 5.2  
Year to date snowfall 14.0  
Since 1 July snowfall 5.2  
Snow Depth 3.00 in    
Sea Level Pressure  
Sea Level Pressure 30.17 in    
Wind  
Wind Speed 4 mph (NW)    
Max Wind Speed 13 mph    
Max Gust Speed 17 mph    
Visibility 9 miles    
Events Snow    
T = Trace of Precipitation, MM = Missing Value Source: NWS Daily Summary

Daily Weather History Graph

Daily Weather History Graph

Search for Another Location

Airport:

Trip Planner

Search our weather history database for the weather conditions in past years. The results will help you decide how hot, cold, wet, or windy it might be!

Date:

Astronomy

Nov. 24, 2010 Rise Set
Actual Time 7:52 AM MST 4:53 PM MST
Civil Twilight 7:18 AM MST 5:27 PM MST
Nautical Twilight 6:40 AM MST 6:05 PM MST
Astronomical Twilight 6:04 AM MST 6:41 PM MST
Moon 7:42 PM MST (11/24) 10:46 AM MST (11/24)
Length of Visible Light 10h 09m
Length of Day
9h 01m
Waning Gibbous, 90% of the Moon is Illuminated
Nov 24
Waning Gibbous
Nov 28
Last Quarter
Dec 5
New
Dec 13
First Quarter
Dec 21
Full

Hourly Weather History & Observations

Time (MST) Temp. Windchill Dew Point Humidity Pressure Visibility Wind Dir Wind Speed Gust Speed Precip Events Conditions
12:05 AM -2.2 °F - -5.8 °F 85% 29.93 in 10.0 mi Calm Calm - N/A   Overcast
12:53 AM -4.0 °F - -7.6 °F 85% 29.94 in 6.0 mi Calm Calm - N/A Snow Light Snow
1:12 AM -4.0 °F - -7.6 °F 85% 29.95 in 6.0 mi Calm Calm - 0.00 in   Overcast
1:21 AM -4.0 °F - -9.4 °F 78% 29.94 in 7.0 mi Calm Calm - 0.00 in   Overcast
1:29 AM -5.8 °F - -9.4 °F 84% 29.94 in 7.0 mi Calm Calm - 0.00 in   Overcast
1:39 AM -4.0 °F -12.4 °F -7.6 °F 85% 29.94 in 9.0 mi North 3.5 mph - 0.00 in   Overcast
1:53 AM -4.0 °F -12.4 °F -8.0 °F 83% 30.17 in 10.0 mi NNW 3.5 mph - 0.00 in   Overcast
2:23 AM -5.8 °F -14.5 °F -9.4 °F 84% 29.95 in 10.0 mi WNW 3.5 mph - N/A   Overcast
2:53 AM -4.0 °F -12.4 °F -8.0 °F 83% 30.18 in 10.0 mi NNW 3.5 mph - N/A   Overcast
3:02 AM -2.2 °F - -7.6 °F 78% 29.96 in 10.0 mi Calm Calm - N/A   Overcast
3:39 AM -2.2 °F -10.4 °F -5.8 °F 85% 29.97 in 6.0 mi NW 3.5 mph - 0.00 in Snow Light Snow
3:53 AM -0.9 °F - -5.1 °F 83% 30.19 in 2.5 mi Calm Calm - 0.00 in Snow Light Snow
4:10 AM -0.4 °F - -5.8 °F 78% 29.98 in 3.0 mi Calm Calm - 0.00 in Snow Light Snow
4:25 AM -0.4 °F - -4.0 °F 85% 29.98 in 4.0 mi Calm Calm - 0.00 in Snow Light Snow
4:35 AM -2.2 °F - -5.8 °F 85% 29.98 in 7.0 mi Calm Calm - 0.00 in Snow Light Snow
4:53 AM -2.2 °F -10.4 °F -7.6 °F 78% 29.98 in 10.0 mi WSW 3.5 mph - N/A   Overcast
5:53 AM -2.9 °F -11.2 °F -7.1 °F 82% 30.22 in 10.0 mi NW 3.5 mph - 0.00 in Snow Light Snow
6:53 AM -8.0 °F - -9.9 °F 91% 30.25 in 10.0 mi Calm Calm - 0.00 in   Mostly Cloudy
7:53 AM -8.0 °F - -11.0 °F 86% 30.28 in 10.0 mi Calm Calm - N/A   Overcast
8:53 AM -6.0 °F -14.7 °F -9.0 °F 87% 30.29 in 10.0 mi NW 3.5 mph - N/A   Partly Cloudy
9:32 AM -7.6 °F - -11.2 °F 84% 30.07 in 10.0 mi Calm Calm - N/A   Mostly Cloudy
9:53 AM -6.0 °F - -7.1 °F 95% 30.30 in 8.0 mi Calm Calm - N/A   Mostly Cloudy
10:53 AM -4.0 °F -12.4 °F -8.0 °F 83% 30.31 in 10.0 mi South 3.5 mph - N/A   Clear
11:53 AM 1.9 °F - -4.0 °F 76% 30.30 in 10.0 mi Calm Calm - N/A   Partly Cloudy
12:53 PM 8.1 °F -3.2 °F -5.1 °F 55% 30.29 in 10.0 mi NNW 6.9 mph - N/A   Partly Cloudy
1:09 PM 8.6 °F -5.5 °F -5.8 °F 52% 30.06 in 10.0 mi NNW 10.4 mph - N/A   Scattered Clouds
1:53 PM 9.0 °F -5.1 °F -4.0 °F 56% 30.29 in 10.0 mi NNW 10.4 mph - N/A   Overcast
2:53 PM 9.0 °F -5.1 °F -4.0 °F 56% 30.30 in 10.0 mi NNW 10.4 mph - N/A   Overcast
3:53 PM 8.1 °F -4.3 °F -2.9 °F 61% 30.31 in 10.0 mi NNW 8.1 mph - N/A   Overcast
4:53 PM 7.0 °F -3.3 °F -2.0 °F 67% 30.35 in 10.0 mi North 5.8 mph - N/A   Overcast
5:53 PM 8.1 °F -3.2 °F -0.9 °F 67% 30.37 in 10.0 mi North 6.9 mph - N/A   Overcast
6:53 PM 8.1 °F -2.0 °F -0.9 °F 67% 30.40 in 10.0 mi North 5.8 mph - N/A   Overcast
7:53 PM 8.1 °F 1.4 °F -0.9 °F 67% 30.41 in 10.0 mi NW 3.5 mph - N/A   Overcast
8:53 PM 9.0 °F -3.2 °F -2.0 °F 61% 30.41 in 10.0 mi NNW 8.1 mph - N/A   Overcast
9:53 PM 8.1 °F 1.4 °F -2.0 °F 64% 30.41 in 10.0 mi WSW 3.5 mph - N/A   Overcast
10:53 PM 7.0 °F -3.3 °F -0.0 °F 73% 30.41 in 10.0 mi WSW 5.8 mph - N/A   Overcast
11:53 PM 7.0 °F - 1.0 °F 77% 30.41 in 10.0 mi Calm Calm - N/A   Overcast